Weather History for Culiacan, Mexico

Change the Weather History Date:

Wednesday, November 14, 2012

  Actual Average Record
Temperature  
Mean Temperature 76 °F -  
Max Temperature 92 °F 85 °F 102 °F (2000)
Min Temperature 59 °F 59 °F 57 °F (1998)
Cooling Degree Days 10    
Growing Degree Days 26 (Base 50)    
Moisture  
Dew Point 60 °F    
Average Humidity 56    
Maximum Humidity 88    
Minimum Humidity 23    
Precipitation  
Precipitation 0.00 in - - ()
Sea Level Pressure  
Sea Level Pressure 29.97 in    
Wind  
Wind Speed 1 mph ()    
Max Wind Speed 12 mph    
Max Gust Speed -    
Visibility 9.4 miles    
Events      
Averages and records for this station are not official NWS values.
T = Trace of Precipitation, MM = Missing Value Source: Averaged Metar Reports

Daily Weather History Graph

Daily Weather History Graph

Search for Another Location

Airport:

Trip Planner

Search our weather history database for the weather conditions in past years. The results will help you decide how hot, cold, wet, or windy it might be!

Date:

Astronomy

Nov. 14, 2012 Rise Set
Actual Time 6:25 AM MST 5:22 PM MST
Civil Twilight 6:01 AM MST 5:46 PM MST
Nautical Twilight 5:34 AM MST 6:14 PM MST
Astronomical Twilight 5:07 AM MST 6:41 PM MST
Moon 7:12 AM MST (11/14) 6:20 PM MST (11/14)
Length of Visible Light 11h 45m
Length of Day
10h 56m
New Moon, 1% of the Moon is Illuminated
Nov 14
New Moon
Nov 20
First Quarter
Nov 28
Full
Dec 6
Last Quarter
Dec 13
New

Hourly Weather History & Observations

Time (MST) Temp. Heat Index Dew Point Humidity Pressure Visibility Wind Dir Wind Speed Gust Speed Precip Events Conditions
1:41 AM 66.2 °F - 60.8 °F 83% 29.95 in 10.0 mi Calm Calm - N/A   Scattered Clouds
1:50 AM 62 °F - 56 °F 76% 29.97 in 6 mi NE 2.2 mph - -  
2:42 AM 66.2 °F - 55.4 °F 68% 29.96 in 10.0 mi Calm Calm - N/A   Scattered Clouds
4:50 AM 61 °F - 55 °F 75% 29.94 in 6 mi East 2.2 mph - -  
5:58 AM 66.2 °F - 60.8 °F 83% 29.96 in 10.0 mi Calm Calm - N/A   Overcast
6:46 AM 64.4 °F - 60.8 °F 88% 29.97 in 10.0 mi Calm Calm - N/A   Overcast
7:41 AM 68.0 °F - 59.0 °F 73% 30.03 in 10.0 mi Calm Calm - N/A   Mostly Cloudy
7:50 AM 63 °F - 56 °F 73% 29.98 in 10 mi West 2.2 mph - -   Haze
8:40 AM 73.4 °F - 57.2 °F 57% 30.02 in 10.0 mi WNW 5.8 mph - N/A   Scattered Clouds
9:41 AM 78.8 °F - 59.0 °F 51% 30.02 in 10.0 mi Calm Calm - N/A   Clear
10:40 AM 83 °F - 56 °F 29% 30.07 in 10 mi West 2.2 mph - -   Haze
10:40 AM 84.2 °F 83.8 °F 59.0 °F 42% 30.01 in 10.0 mi Calm Calm - N/A   Partly Cloudy
11:46 AM 87.8 °F 90.4 °F 66.2 °F 49% 29.98 in 10.0 mi Calm Calm - N/A   Scattered Clouds
12:42 PM 91.4 °F 94.0 °F 66.2 °F 43% 29.95 in 10.0 mi SSW 5.8 mph - N/A   Clear
1:40 PM 91 °F - 58 °F 23% 30.00 in 10 mi SSW 2.2 mph - -   Haze
1:42 PM 91.4 °F 90.7 °F 59.0 °F 34% 29.98 in 10.0 mi SSW 5.8 mph - N/A   Clear
2:45 PM 91.4 °F 90.7 °F 59.0 °F 34% 29.92 in 10.0 mi Calm Calm - N/A   Clear
3:40 PM 91.4 °F 90.7 °F 59.0 °F 34% 29.91 in 10.0 mi West 11.5 mph - N/A   Clear
4:40 PM 89 °F - 58 °F 25% 29.97 in 10 mi WSW 2.2 mph - -   Haze
4:40 PM 89.6 °F 89.5 °F 60.8 °F 38% 29.89 in 10.0 mi WNW 11.5 mph - N/A   Clear
5:40 PM 87.8 °F 87.6 °F 60.8 °F 40% 29.92 in 10.0 mi Calm Calm - N/A   Scattered Clouds
6:40 PM 78.8 °F - 62.6 °F 57% 29.94 in 10.0 mi Calm Calm - N/A   Scattered Clouds
7:40 PM 76 °F - 62 °F 53% 30.02 in 6 mi Calm Calm - -  
7:40 PM 77.0 °F - 64.4 °F 65% 29.90 in 10.0 mi Calm Calm - N/A   Scattered Clouds
8:41 PM 75.2 °F - 64.4 °F 69% 29.97 in 10.0 mi Calm Calm - N/A   Scattered Clouds
9:40 PM 75.2 °F - 66.2 °F 73% 29.98 in 10.0 mi Calm Calm - N/A   Scattered Clouds
10:35 PM 72 °F - 64 °F 71% 30.04 in 6 mi Calm Calm - -  
10:40 PM - - - N/A% - 10.0 mi Calm Calm - N/A   Unknown